Location: Étouvelles
(49.5207°N, 3.5808°E)
Time: 01:13:59
(UTC+00:00)

Cosmos 540 Rocket - Pass Details

Date: 01 October 2023
Orbit: 737 x 752 km, 74.1° (Epoch: 03 December)

Event Time Altitude Azimuth Distance (km) Brightness Sun altitude
Rises 18:26:42 0° 345° (NNW) 3,185 7.0 -10.8°
Reaches altitude 10° 18:31:17 10° 23° (NNE) 2,259 5.8 -11.6°
Maximum altitude 18:32:29 11° 37° (NE) 2,207 5.6 -11.8°
Drops below altitude 10° 18:33:41 10° 51° (NE) 2,258 5.5 -12.0°
Enters shadow 18:34:29 - 59° (ENE) 2,346 5.6 -12.1°
